Skip Navigation Linkswww.weather.gov 
NOAA logo - Click to go to the NOAA homepage National Weather Service   NWS logo - Click to go to the NWS homepage    
Western Region Headquarters
navigation bar decoration      
Regional Divisions
 
 
 
 
 
USA.gov is the U.S. government's official web portal to all federal, state and local government web resources and services.
spacer
Printer Friendly  |   Go Back  |  Version: Current   1   2   3   4   5   6   7   8   9   10   |  Font:  A A A  |  
This version is NOT current and may no longer be valid!

HOURLY WEATHER ROUNDUP
 
 ASUS45 KREV 191210
RWRNV
NEVADA REGIONAL WEATHER ROUNDUP
NATIONAL WEATHER SERVICE RENO NV
500 AM PDT SUN APR 19 2015

NOTE: "FAIR" INDICATES FEW OR NO CLOUDS BELOW 12,000 FEET WITH NO
SIGNIFICANT WEATHER AND/OR OBSTRUCTIONS TO VISIBILITY.

NVZ001-003-004-191300-
WESTERN NEVADA

CITY SKY/WX TMP DP RH WIND PRES REMARKS
RENO PTCLDY 48 23 37 CALM 30.14S
6HR MIN TEMP: 47; 6HR MAX TEMP: 62;

CARSON CITY FAIR 43 18 36 CALM 30.15S
MINDEN FAIR 34 18 51 SE6 30.16
SLIDE MTN N/A 34 14 44 E17 N/A
PYRAMID LAKE N/A 55 N/A N/A S5 N/A
FALLON CLEAR 38 11 32 S7 30.11S
6HR MIN TEMP: 38; 6HR MAX TEMP: 59;

LOVELOCK CLEAR 32 7 35 W5 30.12S
6HR MIN TEMP: 32; 6HR MAX TEMP: 61;

HAWTHORNE CLEAR 52 27 37 W7 30.12R
$$

NVZ002-CAZ072-073-191300-
NORTHERN AND CENTRAL SIERRA

CITY SKY/WX TMP DP RH WIND PRES REMARKS
S. LAKE TAHOE CLEAR 38 23 55 VRB3 30.16F
6HR MIN TEMP: 34; 6HR MAX TEMP: 43;

TRUCKEE CLEAR 30 27 86 CALM 30.17S
SQUAW VLY 8000 N/A 39 18 41 NE5 N/A
SUSANVILLE CLEAR N/A N/A N/A W5 N/A
BLUE CANYON CLEAR 53 18 25 NE8 30.09S
MAMMOTH LAKES FAIR 36 18 48 W6 30.19S
BRIDGEPORT FAIR 27 17 66 CALM 30.19S
$$

NVZ030-031-036-191300-
NORTHERN NEVADA

CITY SKY/WX TMP DP RH WIND PRES REMARKS
ELKO PTCLDY 30 16 56 E3 30.14S
6HR MIN TEMP: 27; 6HR MAX TEMP: 45;

WINNEMUCCA PTCLDY 25 9 50 E3 30.15S
6HR MIN TEMP: 24; 6HR MAX TEMP: 47;

WENDOVER PTCLDY 50 21 32 CALM 30.09S
$$

NVZ035-037-191300-
CENTRAL NEVADA

CITY SKY/WX TMP DP RH WIND PRES REMARKS
ELY CLEAR 26 11 52 S13 30.15S
6HR MIN TEMP: 25; 6HR MAX TEMP: 49;

EUREKA N/A 29 13 51 S7 30.15S
6HR MIN TEMP: 25; 6HR MAX TEMP: 45;

$$

NVZ013-014-191300-
SOUTH CENTRAL NEVADA

CITY SKY/WX TMP DP RH WIND PRES REMARKS
TONOPAH CLEAR 46 15 28 N16 30.10S
6HR MIN TEMP: 46; 6HR MAX TEMP: 56;

$$

NVZ017-020-022-191300-
SOUTHERN NEVADA

CITY SKY/WX TMP DP RH WIND PRES REMARKS
LAS VEGAS CLEAR 63 18 17 SW8 29.86S
6HR MIN TEMP: 63; 6HR MAX TEMP: 76;

N. LAS VEGAS CLEAR 61 21 21 NW9 29.89S
6HR MIN TEMP: 61; 6HR MAX TEMP: 72;

NELLIS AFB NOT AVBL
HENDERSON CLEAR 63 16 16 SW10 29.93R
6HR MIN TEMP: 60; 6HR MAX TEMP: 70;

MERCURY CLEAR 59 15 18 VRB3 29.95S
6HR MIN TEMP: 51; 6HR MAX TEMP: 62;

$$


Webmaster
US Dept of Commerce
National Oceanic and Atmospheric Administration
National Weather Service
Western Region Headquarters
125 South State Street
Salt Lake City, UT 84138-1102

Disclaimer
Information Quality
Credits
Glossary
Organization
Privacy Policy
Freedom of Information Act
About Us
Career Opportunities